Ciudad del Carmen International Airport


Codes: MMCE/CME
Name: Ciudad del Carmen International Airport
City: Ciudad del Carmen
Country: Mexico
Elevation: 10 ft.
Wikipedia:

Photos at Ciudad del Carmen International Airport


   Photos courtesy of SpottingLog. You can add your own sightings and photos by signing up for a free trial today.



No photos found.

Weather at Ciudad del Carmen International Airport


Time (UTC)DescriptionTempratureWindCloud coverageVisibilityPressureHumidity
25-Jun-2024 12:00Overcast Clouds25°C13 mph, SE100%10000m1011hPa87%
25-Jun-2024 15:00Overcast Clouds26°C9 mph, SE100%10000m1012hPa85%
25-Jun-2024 18:00Overcast Clouds26°C9 mph, SE100%10000m1012hPa85%
25-Jun-2024 21:00Overcast Clouds27°C9 mph, SE100%10000m1012hPa83%
26-Jun-2024 00:00Overcast Clouds28°C9 mph, SE92%10000m1011hPa74%
26-Jun-2024 03:00Overcast Clouds28°C9 mph, SE98%10000m1013hPa78%
26-Jun-2024 06:00Light Rain27°C11 mph, SE99%10000m1013hPa82%
26-Jun-2024 09:00Overcast Clouds27°C13 mph, SE100%10000m1011hPa87%
26-Jun-2024 12:00Overcast Clouds27°C13 mph, SE100%10000m1011hPa88%
26-Jun-2024 15:00Overcast Clouds28°C9 mph, SE99%10000m1013hPa83%
26-Jun-2024 18:00Overcast Clouds29°C7 mph, E99%10000m1012hPa76%
26-Jun-2024 21:00Light Rain29°C4 mph, E99%10000m1010hPa77%
27-Jun-2024 00:00Overcast Clouds29°C9 mph, NE99%10000m1009hPa80%
27-Jun-2024 03:00Light Rain29°C11 mph, E63%10000m1010hPa81%
27-Jun-2024 06:00Light Rain28°C16 mph, SE79%10000m1010hPa83%
27-Jun-2024 09:00Light Rain27°C13 mph, SE100%10000m1009hPa86%
27-Jun-2024 12:00Overcast Clouds27°C13 mph, SE100%10000m1010hPa87%
27-Jun-2024 15:00Overcast Clouds28°C13 mph, SE100%10000m1011hPa81%
27-Jun-2024 18:00Overcast Clouds30°C11 mph, SE100%10000m1010hPa72%
27-Jun-2024 21:00Overcast Clouds31°C9 mph, SE100%10000m1008hPa69%
28-Jun-2024 00:00Overcast Clouds30°C7 mph, NE99%10000m1007hPa76%
28-Jun-2024 03:00Light Rain29°C11 mph, NE93%10000m1009hPa81%
28-Jun-2024 06:00Light Rain28°C16 mph, SE92%10000m1009hPa78%
28-Jun-2024 09:00Overcast Clouds27°C16 mph, SE99%10000m1008hPa82%
28-Jun-2024 12:00Overcast Clouds26°C13 mph, SE100%10000m1009hPa87%
28-Jun-2024 15:00Overcast Clouds28°C11 mph, SE99%10000m1010hPa81%
28-Jun-2024 18:00Overcast Clouds30°C9 mph, E97%10000m1009hPa71%
28-Jun-2024 21:00Light Rain30°C11 mph, NE100%10000m1007hPa70%
29-Jun-2024 00:00Light Rain29°C11 mph, N94%10000m1006hPa78%
29-Jun-2024 03:00Moderate Rain28°C18 mph, E93%10000m1009hPa80%
29-Jun-2024 06:00Overcast Clouds27°C18 mph, E97%10000m1009hPa82%
29-Jun-2024 09:00Light Rain27°C16 mph, E91%10000m1008hPa83%
29-Jun-2024 12:00Light Rain27°C13 mph, E75%10000m1008hPa83%
29-Jun-2024 15:00Light Rain27°C13 mph, E75%10000m1009hPa85%
29-Jun-2024 18:00Light Rain27°C9 mph, NE87%9173m1009hPa82%
29-Jun-2024 21:00Moderate Rain27°C18 mph, E99%10000m1008hPa86%
30-Jun-2024 00:00Light Rain26°C20 mph, E99%9878m1008hPa92%
30-Jun-2024 03:00Heavy Intensity Rain25°C22 mph, N100%0m1010hPa95%
30-Jun-2024 06:00Heavy Intensity Rain25°C27 mph, E100%3889m1010hPa93%
30-Jun-2024 09:00Heavy Intensity Rain25°C20 mph, SE100%2265m1009hPa95%